Stündliche Wetter Abony

Heute, 21 Juni, Montag

Zeit Temperatur Niederschläge Wind Luftdruck Luftfeuchtigkeit
00:00 +23°C° 0 mm 1 m/S 749 mmHg 69%
01:00 +22°C° 0 mm 1 m/S 749 mmHg 70%
02:00 +22°C° 0 mm 1 m/S 749 mmHg 72%
03:00 +21°C° 0 mm 1 m/S 749 mmHg 73%
04:00 +21°C° 0 mm 1 m/S 749 mmHg 75%
05:00 +22°C° 0 mm 1 m/S 749 mmHg 71%
06:00 +24°C° 0 mm 2 m/S 749 mmHg 66%
07:00 +26°C° 0 mm 2 m/S 749 mmHg 62%
08:00 +27°C° 0 mm 2 m/S 749 mmHg 57%
09:00 +29°C° 0 mm 2 m/S 749 mmHg 52%
10:00 +30°C° 0 mm 3 m/S 749 mmHg 46%
11:00 +31°C° 0 mm 3 m/S 749 mmHg 44%
12:00 +33°C° 0 mm 3 m/S 748 mmHg 41%
13:00 +34°C° 0 mm 3 m/S 748 mmHg 39%
14:00 +34°C° 0 mm 3 m/S 748 mmHg 40%
15:00 +34°C° 0 mm 2 m/S 748 mmHg 41%
16:00 +34°C° 0 mm 2 m/S 748 mmHg 42%
17:00 +31°C° 0 mm 3 m/S 747 mmHg 48%
18:00 +30°C° 0 mm 3 m/S 747 mmHg 54%
19:00 +28°C° 0 mm 3 m/S 747 mmHg 60%
20:00 +27°C° 0.6 mm 3 m/S 747 mmHg 67%
21:00 +25°C° 0.6 mm 3 m/S 747 mmHg 73%
22:00 +22°C° 0.6 mm 3 m/S 748 mmHg 79%
23:00 +22°C° 1 mm 3 m/S 748 mmHg 82%

Morgen, 22 Juni, Dienstag

Zeit Temperatur Niederschläge Wind Luftdruck Luftfeuchtigkeit
00:00 +21°C° 1 mm 3 m/S 748 mmHg 85%
01:00 +21°C° 1 mm 3 m/S 748 mmHg 88%
02:00 +21°C° 0.2 mm 3 m/S 748 mmHg 89%
03:00 +20°C° 0.2 mm 3 m/S 748 mmHg 90%
04:00 +20°C° 0.2 mm 3 m/S 748 mmHg 91%
05:00 +22°C° 0 mm 3 m/S 748 mmHg 87%
06:00 +24°C° 0 mm 3 m/S 748 mmHg 82%
07:00 +25°C° 0 mm 3 m/S 749 mmHg 77%
08:00 +27°C° 0 mm 3 m/S 749 mmHg 69%
09:00 +28°C° 0 mm 3 m/S 749 mmHg 62%
10:00 +30°C° 0 mm 3 m/S 749 mmHg 54%
11:00 +31°C° 0 mm 3 m/S 749 mmHg 51%
12:00 +32°C° 0 mm 2 m/S 749 mmHg 48%
13:00 +34°C° 0 mm 2 m/S 749 mmHg 44%
14:00 +35°C° 0 mm 2 m/S 748 mmHg 43%
15:00 +35°C° 0 mm 2 m/S 748 mmHg 42%
16:00 +35°C° 0 mm 2 m/S 748 mmHg 41%
17:00 +34°C° 0 mm 2 m/S 748 mmHg 48%
18:00 +31°C° 0 mm 2 m/S 748 mmHg 55%
19:00 +30°C° 0 mm 2 m/S 749 mmHg 62%
20:00 +28°C° 0 mm 1 m/S 749 mmHg 64%
21:00 +27°C° 0 mm 1 m/S 749 mmHg 66%
22:00 +26°C° 0 mm 1 m/S 749 mmHg 68%
23:00 +26°C° 0 mm 1 m/S 750 mmHg 70%

übermorgen, 23 Juni, Mittwoch

Zeit Temperatur Niederschläge Wind Luftdruck Luftfeuchtigkeit
00:00 +25°C° 0 mm 1 m/S 750 mmHg 72%
01:00 +25°C° 0 mm 1 m/S 750 mmHg 74%
02:00 +24°C° 0 mm 1 m/S 750 mmHg 77%
03:00 +24°C° 0 mm 1 m/S 750 mmHg 79%
04:00 +23°C° 0 mm 1 m/S 750 mmHg 82%
05:00 +25°C° 0 mm 1 m/S 751 mmHg 76%
06:00 +26°C° 0 mm 1 m/S 751 mmHg 71%
07:00 +28°C° 0 mm 1 m/S 751 mmHg 66%
08:00 +29°C° 0 mm 2 m/S 751 mmHg 59%
09:00 +31°C° 0 mm 2 m/S 752 mmHg 51%
10:00 +32°C° 0 mm 2 m/S 752 mmHg 44%
11:00 +34°C° 0 mm 2 m/S 752 mmHg 40%
12:00 +35°C° 0 mm 3 m/S 752 mmHg 37%
13:00 +36°C° 0 mm 3 m/S 752 mmHg 34%
14:00 +36°C° 0 mm 3 m/S 752 mmHg 34%
15:00 +36°C° 0 mm 3 m/S 752 mmHg 34%
16:00 +36°C° 0 mm 3 m/S 752 mmHg 34%
17:00 +34°C° 0 mm 2 m/S 752 mmHg 41%
18:00 +31°C° 0 mm 2 m/S 752 mmHg 48%
19:00 +30°C° 0 mm 2 m/S 752 mmHg 55%
20:00 +29°C° 0 mm 2 m/S 752 mmHg 61%
21:00 +27°C° 0 mm 2 m/S 753 mmHg 67%
22:00 +26°C° 0 mm 3 m/S 753 mmHg 73%
23:00 +26°C° 0 mm 2 m/S 753 mmHg 75%

24 Juni, Donnerstag

Zeit Temperatur Niederschläge Wind Luftdruck Luftfeuchtigkeit
00:00 +25°C° 0 mm 2 m/S 753 mmHg 77%
01:00 +25°C° 0 mm 2 m/S 753 mmHg 79%
02:00 +24°C° 0 mm 1 m/S 753 mmHg 80%
03:00 +24°C° 0 mm 1 m/S 753 mmHg 81%
04:00 +24°C° 0 mm 1 m/S 753 mmHg 82%
05:00 +25°C° 0 mm 1 m/S 753 mmHg 77%
06:00 +27°C° 0 mm 1 m/S 753 mmHg 71%
07:00 +28°C° 0 mm 1 m/S 754 mmHg 66%
08:00 +30°C° 0 mm 1 m/S 754 mmHg 60%
09:00 +32°C° 0 mm 1 m/S 754 mmHg 54%
10:00 +34°C° 0 mm 1 m/S 754 mmHg 49%
11:00 +35°C° 0 mm 1 m/S 753 mmHg 45%
12:00 +37°C° 0 mm 2 m/S 753 mmHg 41%
13:00 +38°C° 0 mm 2 m/S 753 mmHg 37%
14:00 +38°C° 0 mm 2 m/S 753 mmHg 36%
15:00 +38°C° 0 mm 2 m/S 752 mmHg 35%
16:00 +39°C° 0 mm 2 m/S 752 mmHg 34%
17:00 +37°C° 0 mm 2 m/S 752 mmHg 40%
18:00 +35°C° 0 mm 3 m/S 752 mmHg 46%
19:00 +33°C° 0 mm 3 m/S 751 mmHg 53%
20:00 +31°C° 0 mm 3 m/S 751 mmHg 53%
21:00 +30°C° 0 mm 3 m/S 752 mmHg 54%
22:00 +29°C° 0 mm 3 m/S 752 mmHg 55%
23:00 +27°C° 0.3 mm 3 m/S 751 mmHg 60%

25 Juni, Freitag

Zeit Temperatur Niederschläge Wind Luftdruck Luftfeuchtigkeit
00:00 +26°C° 0.3 mm 3 m/S 751 mmHg 64%
01:00 +25°C° 0.3 mm 3 m/S 751 mmHg 69%
02:00 +25°C° 0.1 mm 3 m/S 751 mmHg 70%
03:00 +24°C° 0.1 mm 2 m/S 751 mmHg 71%
04:00 +23°C° 0.1 mm 2 m/S 751 mmHg 72%
05:00 +25°C° 0 mm 2 m/S 751 mmHg 68%
06:00 +26°C° 0 mm 2 m/S 751 mmHg 64%
07:00 +28°C° 0 mm 2 m/S 752 mmHg 60%
08:00 +29°C° 0 mm 3 m/S 752 mmHg 55%
09:00 +31°C° 0 mm 3 m/S 752 mmHg 50%
10:00 +34°C° 0 mm 3 m/S 752 mmHg 45%
11:00 +34°C° 0 mm 4 m/S 752 mmHg 45%
12:00 +34°C° 0 mm 4 m/S 752 mmHg 44%
13:00 +35°C° 0 mm 5 m/S 752 mmHg 43%
14:00 +34°C° 0 mm 5 m/S 751 mmHg 42%
15:00 +34°C° 0 mm 5 m/S 751 mmHg 41%
16:00 +33°C° 0 mm 6 m/S 751 mmHg 41%
17:00 +30°C° 0 mm 5 m/S 751 mmHg 47%
18:00 +29°C° 0 mm 4 m/S 751 mmHg 53%
19:00 +27°C° 0 mm 4 m/S 751 mmHg 59%
20:00 +26°C° 0 mm 3 m/S 752 mmHg 61%
21:00 +25°C° 0 mm 3 m/S 752 mmHg 62%
22:00 +22°C° 0 mm 3 m/S 752 mmHg 64%
23:00 +23°C° 0 mm 2 m/S 752 mmHg 65%

26 Juni, Samstag

Zeit Temperatur Niederschläge Wind Luftdruck Luftfeuchtigkeit
00:00 +21°C° 0 mm 2 m/S 752 mmHg 67%
01:00 +22°C° 0 mm 1 m/S 752 mmHg 68%
02:00 +20°C° 0 mm 2 m/S 752 mmHg 69%
03:00 +20°C° 0 mm 2 m/S 752 mmHg 71%
04:00 +20°C° 0 mm 3 m/S 752 mmHg 72%
05:00 +21°C° 0.1 mm 3 m/S 752 mmHg 70%
06:00 +22°C° 0.1 mm 3 m/S 752 mmHg 68%
07:00 +24°C° 0.1 mm 3 m/S 752 mmHg 66%
08:00 +25°C° 0.1 mm 3 m/S 752 mmHg 60%
09:00 +27°C° 0.1 mm 3 m/S 752 mmHg 54%
10:00 +28°C° 0.1 mm 3 m/S 752 mmHg 49%
11:00 +29°C° 0 mm 3 m/S 752 mmHg 46%
12:00 +30°C° 0 mm 3 m/S 751 mmHg 43%
13:00 +31°C° 0 mm 3 m/S 751 mmHg 41%
14:00 +30°C° 0 mm 4 m/S 751 mmHg 43%
15:00 +30°C° 0 mm 6 m/S 750 mmHg 44%
16:00 +29°C° 0 mm 7 m/S 750 mmHg 46%
17:00 +28°C° 0 mm 6 m/S 750 mmHg 51%
18:00 +26°C° 0 mm 6 m/S 750 mmHg 55%
19:00 +24°C° 0 mm 6 m/S 751 mmHg 60%
20:00 +22°C° 0.2 mm 5 m/S 751 mmHg 69%
21:00 +20°C° 0.2 mm 3 m/S 752 mmHg 78%
22:00 +18°C° 0.2 mm 2 m/S 752 mmHg 87%
23:00 +18°C° 0 mm 2 m/S 752 mmHg 89%
Mehr zeigen

Wir brauchen deine Erlaubnis

Meteoprog und unser Service Anbieter werden persönliche Daten aufbewahren, so wie Cookies, Geräte Bezeichnung oder ähnliche Technologien von deinem Gerät und Prozess, so wie Persönliche Daten Inhalte und Werbungen, genauso wie social Media und den Verkehr zu analysieren.

  • Aufbewahrung und/oder Zugang zu deiner Geräte Informationen.

    Cookies, Geräte Bezeichnung oder andere Informationen, können aufbewahrt oder Zugang zu deinem Gerät erhalten, für den Grund, der oben angegeben wird.

  • Personalisierte Werbung und Inhalte, Messungen, Einblick in das Publikum und Produkt Entwicklung.

    Werbungen und Inhalte können personalisiert werden, basierend auf ein Profil. Mehr Daten können besser personalisierte Werbungen und Inhalte hinzufügen. Werbung und Inhalte können gezeigt und gemessen werden. Einblicke über das Publikum, welche die Werbung gesehen haben und den Inhalt, können abgeleitet werden. So wie Daten können genutzt werden, um es zu verbessern oder die Benutzer Erfahrung zu verbessern das System und die Software.

Wenn du “Ich stimme zu” klickst, erlaubst du uns, die Cookies zu benutzen die Geräte Bezeichnung, den Web oder ähnliche Technologien zu benutzen. Deine Settings, können in deinem Gerät bei deinem Browser geändert werden.

Für den bestimmten Zweck, berechtigten Interessen beruhen darauf, mehr als auf den Inhalt. Du kannst mehr darüber in unseren Privaten und Cookie Politik lesen.